Regional Weather Roundup
Issued by NWS

Home | Current Version | Previous Version | Text Only | Print | Product List | Glossary On
Versions: 1 2 3 4 5 6 7 8 9 10 11 12 13 14 15 16 17 18 19 20 21 22 23 24 25 26 27 28 29 30 31 32 33 34 35 36 37 38 39 40 41 42 43 44 45 46 47 48 49 50
000
ASUS43 KMPX 241801
RWRMN
WEATHER ROUNDUP FOR MINNESOTA
NATIONAL WEATHER SERVICE TWIN CITIES/CHANHASSEN MN
100 PM CDT FRI OCT 24 2014


NOTE: "FAIR" INDICATES FEW OR NO CLOUDS BELOW 12,000 FEET WITH NO
SIGNIFICANT WEATHER AND/OR OBSTRUCTIONS TO VISIBILITY. N/A MEANS
CURRENT SKY AND/OR WEATHER CONDITIONS ARE NOT AVAILABLE.

MNZ060>063-068>070-241900-
   Twin Cities Metro

CITY           SKY/WX    TMP DP  RH WIND       PRES   REMARKS
TWIN CITIES    CLOUDY    62  52  69 S8        29.86S
6HR MIN TEMP:  47; 6HR MAX TEMP:  62;

ST PAUL        CLOUDY    60  53  77 SE5       29.86F
CRYSTAL        MOSUNNY   65  52  62 S6        29.84F
BLAINE         MOSUNNY   64  54  68 SW10      29.85F
LAKEVILLE      CLOUDY    61  54  77 S8        29.85F
EDEN PRAIRIE   PTSUNNY   64  53  67 SW9       29.84F
6HR MIN TEMP:  48; 6HR MAX TEMP:  65;

SOUTH ST PAUL  CLOUDY    61  54  75 S8        29.86F
LAKE ELMO      CLOUDY    61  54  77 S8        29.87F
$$
MNZ001>005-007-008-013>017-022>024-027-028-241900-
   Northwest Minnesota

CITY           SKY/WX    TMP DP  RH WIND       PRES   REMARKS
BEMIDJI        SUNNY     69  38  31 SW9       29.77F
HALLOCK        PTSUNNY   66  45  45 SW14      29.70S
ROSEAU         CLOUDY    63  45  51 SW10      29.69F
WARROAD        CLOUDY    61  46  59 SW13      29.69F
THIEF RVR FALL MOSUNNY   64  43  45 SW13      29.75F
CROOKSTON      MOSUNNY   64  45  48 SW13      29.77F
FOSSTON        SUNNY     66  45  45 SW6       29.78F
DETROIT LAKES  SUNNY     64  37  36 W6        29.83S
MOORHEAD       MOSUNNY   66  39  37 SW6       29.82S
PARK RAPIDS    SUNNY     68  39  34 SW13      29.80F
$$
MNZ006-009>011-018-025>026-241900-
   North Central Minnesota

CITY           SKY/WX    TMP DP  RH WIND       PRES   REMARKS
BAUDETTE       CLOUDY    65  42  43 SW13      29.69F
FLAG ISLAND    CLOUDY    55  43  62 SW8       29.66S
INTL FALLS     PTSUNNY   66  42  41 SW13      29.71F
6HR MIN TEMP:  46; 6HR MAX TEMP:  66;

WASKISH        PTSUNNY   63  45  51 CALM      29.74F
BIG FORK       PTSUNNY   68  45  42 SW10      29.77F
LONGVILLE      SUNNY     64  46  52 S6        29.80F
GRAND RAPIDS   MOSUNNY   64  45  48 S13       29.79F
CRANE LAKE     PTSUNNY   64  43  45 SW5       29.75F
ORR            PTSUNNY   64  39  39 SW3G16    29.74R
COOK           PTSUNNY   64  46  52 S9        29.77S
WALKER         FAIR      66  40  38 SW7       29.78F
$$
MNZ012-019>021-037-241900-
   Northeast Minnesota

CITY           SKY/WX    TMP DP  RH WIND       PRES   REMARKS
DULUTH         MOSUNNY   64  48  56 SW13      29.80F
6HR MIN TEMP:  48; 6HR MAX TEMP:  64;

ELY            MOSUNNY   64  46  52 SW10      29.77F
HIBBING        MOSUNNY   65  46  50 SW12      29.79F
EVELETH        MOSUNNY   63  46  55 SW12      29.80S
DULUTH HARBOR  SUNNY     64  52  63 SW10      29.80F
TWO HARBORS    SUNNY     64  39  39 SW15      29.78F
SILVER BAY     SUNNY     63  48  59 S12       29.77F
GRAND MARAIS     N/A     50  47  89 SW8       29.81F
G MARAIS ARPRT MOSUNNY   52  45  76 S7        29.81F
$$
MNZ029>031-032-039>041-046>048-054>057-064-241900-
   West Central Minnesota

CITY           SKY/WX    TMP DP  RH WIND       PRES   REMARKS
FERGUS FALLS   MOSUNNY   66  39  37 SW6       29.83F
WHEATON        MOSUNNY   68  45  42 W5        29.85F
MORRIS         MOSUNNY   70  46  43 W6        29.84F
ALEXANDRIA     MOSUNNY   66  45  46 W9        29.85F
ELBOW LAKE     FAIR      65  44  47 W8        29.84F
WADENA         MOSUNNY   64  45  48 SW7       29.82F
GLENWOOD       PTSUNNY   63  48  59 W6        29.85F
APPLETON       MOSUNNY   70  46  43 W6        29.85S
BENSON         MOSUNNY   66  52  59 NW6       29.85S
ORTONVILLE     MOSUNNY   70  45  40 SW3       29.85S
MADISON        MOSUNNY   72  48  43 NW5       29.85F
WILLMAR        FAIR      63  48  59 NW6       29.87S
$$
MNZ033>034-036-042>043-049>051-058-059-241900-
   Central Minnesota

CITY           SKY/WX    TMP DP  RH WIND       PRES   REMARKS
ST CLOUD       FAIR      64  49  57 S7        29.85S
6HR MIN TEMP:  46; 6HR MAX TEMP:  64;

SAUK CENTRE    FAIR      63  51  63 SW5       29.84F
PAYNESVILLE    MOSUNNY   60  48  63 S5        29.85F
AITKIN         SUNNY     66  48  52 S5        29.80F
PINE RIVER     SUNNY     66  48  52 SW7       29.84F
BRAINERD       SUNNY     62  46  55 W9        29.83F
STAPLES        SUNNY     64  45  48 W7        29.82F
LONG PRAIRIE   FAIR      61  48  63 SW3       29.84F
LITTLE FALLS   SUNNY     61  45  55 S6        29.84S
LITCHFIELD     PTSUNNY   64  54  68 W3        29.85F
BUFFALO        MOSUNNY   62  50  64 SW3       29.85F
MAPLE LAKE     MOSUNNY   63  53  68 SW3       29.85F
$$
MNZ037-044-045-052-053-241900-
   East Central Minnesota

CITY           SKY/WX    TMP DP  RH WIND       PRES   REMARKS
PRINCETON      SUNNY     64  52  63 S6        29.84F
MORA           SUNNY     61  48  63 SW6       29.85F
CAMBRIDGE      SUNNY     64  52  63 SW6       29.82F
RUSH CITY      SUNNY     63  51  67 S7        29.84F
MOOSE LAKE     SUNNY     63  50  63 SW9       29.80F
HINCKLEY       FAIR      61  52  72 S6        29.83F
CLOQUET        SUNNY     64  48  55 S8        29.80F
MCGREGOR       SUNNY     64  50  59 S10       29.81F
$$
MNZ071>073-080-081-089-090-097-098-241900-
   Southwest Minnesota

CITY           SKY/WX    TMP DP  RH WIND       PRES   REMARKS
MONTEVIDEO     MOSUNNY   70  54  56 NW3       29.86F
GRANITE FALLS  MOSUNNY   64  52  63 W3        29.87F
CANBY          PTSUNNY   70  45  40 W5        29.87F
MARSHALL       PTSUNNY   68  48  49 W6        29.86S
REDWOOD FALLS  PTSUNNY   64  51  62 W6        29.85F
OLIVIA         MOSUNNY   63  50  63 W3        29.84F
PIPESTONE      MOSUNNY   66  48  52 W8        29.89F
WINDOM         PTSUNNY   66  54  63 SW5       29.87F
WORTHINGTON    PTSUNNY   66  54  63 W7        29.90S
JACKSON        PTSUNNY   64  52  63 W3        29.88F
TRACY          PTSUNNY   70  51  52 CALM      29.87S
SLAYTON        PTSUNNY   68  50  53 W7        29.89F
$$
MNZ065>067-074>077-082>085-091>093-241900-
   South Central Minnesota

CITY           SKY/WX    TMP DP  RH WIND       PRES   REMARKS
MANKATO        PTSUNNY   64  52  63 SW10      29.86F
NEW ULM        PTSUNNY   63  54  72 W6        29.85F
ST JAMES       PTSUNNY   66  54  63 CALM      29.87F
FAIRMONT       PTSUNNY   66  48  52 W6        29.87F
GLENCOE        PTSUNNY   64  55  70 SW5       29.85F
FARIBAULT      CLOUDY    61  55  82 S8        29.88S HAZE
OWATONNA       CLOUDY    57  54  88 S8        29.88F FOG
WASECA         CLOUDY    59  50  72 SW8       29.89F
ALBERT LEA     FOG       57  55  94 S6        29.89F VSB 1
$$
MNZ078>079-086>088-094>096-241900-
   Southeast Minnesota

CITY           SKY/WX    TMP DP  RH WIND       PRES   REMARKS
ROCHESTER      CLOUDY    55  54  96 S13       29.92S FOG
6HR MIN TEMP:  45; 6HR MAX TEMP:  58;

RED WING       CLOUDY    61  54  77 SE3       29.86F
STANTON        CLOUDY    60  54  80 S9        29.86S
DODGE CENTER   CLOUDY    55  54  94 S12       29.89F FOG
WINONA         CLOUDY    59  54  82 SE9       29.89F
AUSTIN         CLOUDY    54  54 100 S9        29.90F FOG
PRESTON        CLOUDY    58  55  89 S13       29.92F
$$
ABBREVIATIONS USED IN REMARKS
   TC - TEMPERATURES IN CELSIUS
  WCI - WIND CHILL INDEX
   HX - HEAT INDEX
  VSB - VISIBILITY
$$



USA.gov is the U.S. government's official web portal to all federal, state and local government web resources and services.